Terminal Aerodrome Forecast
Issued by NWS St Louis, MO

Home | Current Version | Previous Version | Text Only | Print | Product List | Glossary On
Versions: 1 2 3 4 5 6 7 8 9 10 11 12 13 14 15 16 17 18 19 20 21 22 23 24 25 26
000
FTUS43 KLSX 230200 AAA
TAFCOU
TAF AMD
KCOU 230206Z 2302/2324 22010KT P6SM -RA OVC040
     FM230300 23010KT P6SM SCT040 OVC060
     FM230430 24010KT P6SM SCT060
     FM231200 22008KT P6SM SCT100=

USA.gov is the U.S. government's official web portal to all federal, state and local government web resources and services.